Bonjour et bienvenue! Nous sommes le Mardi 17 Octobre 2017 - 11:04z -----------------Prochaine permanence le 19/10/2017 de 13h00 à 14h00 à l'ENAC - Accueil
 

/ Bienvenue sur la page de l'aéroclub de l'ENAC /

Bienvenue sur le Site

L'Aéroclub de l'ENAC est situé sur l'aérodrome de Balma Lasbordes, en bordure de la rocade Est, sortie route de Castres.

Dans cet aéroclub vous aurez l'occasion de côtoyer les étudiants, technicien, ingénieur ou pilote de ligne formés à l'ENAC, ainsi que d'autres membres venant de tous horizons professionnels.

Bien que portant le nom de l'ENAC, notre aéroclub est ouvert à toutes et tous! Alors n'hésitez pas!


Bonne visite !

 

Dernière modification par Sylvie B. le 12 Juin 2017


/ Les dernières news... /
(Cliquez sur la bannière défilante pour accéder aux news complètes)

- Vacances d'ete -- Permanences de l'Aeroclub a l'ENAC -- Photos du week-end Peinture -- Rallye Toulouse Saint-Louis -- Goodies ACENAC -


Météo à Blagnac (Source : NOAA)
2017/10/17 10:30 LFBO 171030Z AUTO 13017G28KT 100V160 CAVOK 22/12 Q1020 NOSIG

Les coordonnées de l'aéroclub
Aéroclub de l'ENAC
38 av Jean René Lagasse
Aérodrome de TOULOUSE LASBORDES
31130 BALMA

Tél & Fax: 05 61 20 67 34
Mail : ac.enac.secretariat (at) gmail.com
 


 
CSS Valide !